Other Public Products
Issued by NWS Grand Forks, ND

Home | Current Version | Previous Version | Graphics & Text | Print | Product List | Glossary On
Versions: 1 2 3 4 5 6 7 8 9 10 11 12 13 14 15 16 17 18 19 20 21 22 23 24 25 26 27 28 29 30 31 32 33 34 35 36 37 38 39 40 41 42 43 44 45 46 47 48 49 50
000
FPUS83 KFGF 240810
OPUFGF
PRAIRIE TO PINES WEATHER ROUNDUP
NATIONAL WEATHER SERVICE EASTERN NORTH DAKOTA/GRAND FORKS ND
200 AM CST SAT FEB 24 2018

 **SATELLITE DATA USED TO AUGMENT SKY COVER AT AUTOMATED STATIONS**
 *****  WEATHER ACROSS EASTERN NORTH DAKOTA  *****

CITY           SKY/WX    TMP DP  RH WIND       PRES   REMARKS
GRAND FORKS    FAIR       3  -1  83 S9        30.16F WCI -12
GRND FORKS AFB CLEAR      1  -2  85 S10       30.17F WCI -14
GRND FORKS NWS   N/A      3   0  88 S5        30.14F WCI  -7
BUXTON           N/A     -1  -1  99 S6          N/A  WCI -13
DEVILS LAKE    FAIR       2  -3  80 S5        30.05F WCI  -8
FARGO          FAIR       3   0  87 S7        30.20F WCI  -9
WAHPETON ARPT  CLOUDY   -13 -18  77 E3        30.22F
$$

 *****  WEATHER ACROSS CENTRAL AND WESTERN NORTH DAKOTA  *****

CITY           SKY/WX    TMP DP  RH WIND       PRES   REMARKS
JAMESTOWN      FAIR      -1  -4  87 S5        30.08F WCI -11
BISMARCK       FAIR       2  -2  83 E3        30.05F
MINOT          FAIR      13  -1  54 S13G22    29.92F WCI  -2
MINOT AFB      FAIR      12   0  57 SW23        N/A  WCI  -7
GARRISON         N/A      6  -4  63 SW8       29.97F WCI  -7
WILLISTON      FAIR      -4  -9  79 CALM      29.90F
DICKINSON      FAIR       4  -4  69 S13       29.87F WCI -13
HETTINGER      FAIR      -4  -7  87 S5        29.94F WCI -15
$$

 *****  OTHER OBSERVATIONS NORTHEAST NORTH DAKOTA  *****

CITY           SKY/WX    TMP DP  RH WIND       PRES   REMARKS
WALHALLA       FAIR      12   7  79 S10       30.08F WCI  -1
LANGDON        FAIR       3   3 100 SW23      30.02F FOG     WCI -19
CAVALIER         N/A      5   3  92 S12       30.11F WCI -11
GRAFTON        FAIR       3   0  85 S8        30.16F WCI -10
CANDO          FAIR       0  -2  92 S10       30.04F WCI -17
FORT TOTTEN      N/A      5  -2  73 S8        29.95S WCI  -8
ROLLA          FAIR       5   1  85 SW14G21   29.96F WCI -12
RUGBY          FAIR       5  -2  72 S10       30.00F WCI -10
 ***** THE ABOVE OBSERVATIONS ARE NON NWS ARE NOT QUALITY
        CONTROLLED AND MAY MIS-REPORT RAIN FOR SNOW...
$$

 *****  OTHER OBSERVATIONS SOUTHEAST NORTH DAKOTA *****

CITY           SKY/WX    TMP DP  RH WIND       PRES   REMARKS
COOPERSTOWN    FAIR      -2  -4  92 S7        30.12F WCI -16
VALLEY CITY    FAIR      -4  -4 100 S7        30.14F WCI -18
OAKES          HAZE      -9 -15  77 S6        30.14F VSB 1/4 WCI -23
GWINNER          N/A     -9 -13  84 CALM      30.15F
SHEYENNE NWR     N/A    -10 -15  79 S3        29.95
BUFFALO          N/A      3  -1  85 NE7         N/A  WCI -10
WYNDMERE       NOT AVBL
 ***** THE ABOVE OBSERVATIONS ARE NON NWS ARE NOT QUALITY
       CONTROLLED AND MAY MIS-REPORT RAIN FOR SNOW...
$$

  *****  WEATHER ACROSS NORTHERN MINNESOTA  *****

CITY           SKY/WX    TMP DP  RH WIND       PRES   REMARKS
FLAG ISLAND    FAIR      -4  -8  84 SE3       30.14S
WARROAD        FAIR       3   1  92 SW9       30.15F WCI -11
ROSEAU         FAIR       3   0  85 S8        30.15F WCI -10
HALLOCK        FAIR       1   0  92 S12       30.14F WCI -15
THF RVR FALLS  FAIR       0  -3  87 S10       30.18F WCI -16
HALSTAD        NOT AVBL
FOSSTON        FAIR      -6  -9  84 S6        30.19F WCI -18
BAUDETTE       FAIR       2  -1  88 S5        30.16S WCI  -8
WASKISH        FAIR       7   3  85 SW7       30.18F WCI  -5
CROOKSTON      FAIR      -2  -6  84 S8        30.20F WCI -17
$$
  *****  WEATHER ACROSS CENTRAL AND WEST MINNESOTA  *****

CITY           SKY/WX    TMP DP  RH WIND       PRES   REMARKS
BEMIDJI        FAIR       1  -2  86 SW6       30.18S WCI -10
PARK RAPIDS    FAIR      -1  -7  75 CALM      30.18F
WADENA         FAIR      -2  -4  92 CALM      30.19F
DETROIT LAKES  FAIR      -2  -6  84 CALM      30.20F
MOORHEAD       FAIR      -4  -9  77 SE6       30.21F WCI -16
FERGUS FALLS   FAIR      -2  -6  84 E5        30.21F WCI -12
ELBOW LAKE     FAIR     -10 -13  83 S5        30.21F WCI -21
MORRIS MN      FOG       -9 -15  77 NE6       30.19F VSB 1/4 WCI -23
STAPLES        FAIR      -8 -11  84 CALM      30.21F FOG
WHEATON        HAZE     -15 -20  76 E5        30.22F VSB<1/4 WCI -27
$$
  *****  WEATHER ELSEWHERE ACROSS MINNESOTA  *****

CITY           SKY/WX    TMP DP  RH WIND       PRES   REMARKS
DULUTH         FAIR      13   8  81 W6        30.18S WCI   4
INTRNTL FALLS  FAIR       1  -1  91 SW5       30.18S WCI  -9
ELY            FAIR       3   1  92 CALM      30.18R
CLOQUET        FAIR      12   7  79 W5        30.20S WCI   4
BRAINERD       FAIR       1  -5  75 CALM      30.22F
HIBBING        FAIR      -4  -5  95 W3        30.20R
ALEXANDRIA     FAIR      -2  -5  87 N5        30.20F FOG     WCI -12
SAINT CLOUD    FAIR       0  -4  83 CALM      30.24F
MINNEAPOLIS    FAIR      14  11  87 CALM      30.26S
$$

  *****  WEATHER ACROSS SOUTH DAKOTA  *****

CITY           SKY/WX    TMP DP  RH WIND       PRES   REMARKS
SIOUX FALLS    FOG       15  13  91 E8        30.17F VSB 1/4 WCI   4
BROOKINGS      LGT SNOW   3   0  85 SE6       30.17F VSB 3/4 WCI  -8
WATERTOWN      FAIR      -6  -8  91 CALM      30.12F FOG
HURON          CLOUDY    -2  -3  96 S5        30.18F FOG     WCI -12
SISSETON         N/A     -7 -10  87 CALM      30.18F
ABERDEEN       ICE FOG  -12 -15  86 S3        30.17F VSB 1/4
MITCHELL       FOG        2   1  96 SE3       30.18F VSB 1/4
PIERRE         FAIR      -2  -4  91 CALM      30.09F
MOBRIDGE       FAIR      -6 -10  83 SE3       30.06S
RAPID CITY     FAIR      14   6  70 S8        29.89F WCI   3
$$

  *****  SOME WEATHER IN NEARBY STATES *****

CITY           SKY/WX    TMP DP  RH WIND       PRES   REMARKS
GLASGOW MT     FAIR      -4  -9  79 SE12      29.81F WCI -22
GREAT FALLS MT FAIR      16   5  62 SW22      29.76S WCI  -2
CHEYENNE WY    CLOUDY    20  20 100 S9        29.81S FOG     WCI   9
SCOTTSBLUFF NE LGT SNOW  21  18  88 E8        29.91F FOG     WCI  11
OMAHA NE       CLOUDY    22  19  89 NE8       30.18F WCI  12
DES MOINES IA  FAIR      24  20  84 NE6       30.21F WCI  17
DAVENPORT IA   FAIR      29  24  82 N10       30.24F WCI  20
CHICAGO IL     CLOUDY    33  27  78 N9        30.22F
EAU CLAIRE WI  FAIR       9   7  92 CALM      30.25R FOG
LA CROSSE WI   FAIR      23  19  85 CALM      30.29  FOG
$$

  *****  SOME NATIONAL WEATHER *****

CITY           SKY/WX    TMP DP  RH WIND       PRES   REMARKS
LA GUARDIA NY  CLOUDY    45  40  82 W9        30.15F
RALEIGH NC     FAIR      59  59 100 SW7       30.25F
ATLANTA GA     MOCLDY    66  59  78 S8        30.22F
NEW ORLEANS LA FAIR      70  70 100 SE5       30.11F
OKLAHOMA CITY  FOG       38  38 100 N6        29.97F VSB 1/2
ALBUQUERQUE NM MOCLDY    35  20  54 W3        29.96S
SALT LAKE CITY FAIR      17  12  80 S6        30.16F WCI   9
LOS ANGELES CA FAIR      50  19  29 N9        30.28R
BOISE ID       CLOUDY    24  12  60 SE8       30.20F WCI  15
SEATTLE WA     LGT RAIN  37  34  89 S15G23    30.04F
$$

*** WEATHER ACROSS MANITOBA...SASKATCHEWAN AND ONTARIO ***
                ***ONTARIO***

CITY           SKY/WX    TMP DP  RH WIND       PRES   REMARKS
GERALDTON      CLEAR      3   0  85 SW5       30.08R WCI  -6
THUNDER BAY    CLEAR      9   7  92 NW5       30.17R WCI   0
SIOUX LOOKOUT  CLEAR      1  -2  85 S5        30.09R WCI  -8
TORONTO        PTCLDY    36  30  80 W9        30.18R
BIG TROUT LK   CLOUDY     3  -8  60 SW8       29.96F WCI -10
PICKLE LAKE    NOT AVBL
DRYDEN         CLEAR      5   1  85 SW8       30.09F WCI  -8
KENORA         CLEAR      1   0  92 S8        30.10S WCI -12
$$
                *** MANITOBA***

CITY           SKY/WX    TMP DP  RH WIND       PRES   REMARKS
BRANDON        CLEAR      1  -2  85 SW5       29.93F WCI  -8
DAUPHIN        CLEAR     12   5  73 SW8       29.86F WCI   1
ISLAND LAKE    CLEAR     12   1  62 S8        29.88F WCI   1
PILOT MOUND      N/A      3   0  85 S12         N/A  WCI -13
THE PAS        CLOUDY     9   1  72 S12       29.65F WCI  -6
THOMPSON       CLOUDY    14   5  67 S9        29.62F WCI   2
WINNIPEG       CLEAR      5   1  85 S14       30.07F WCI -12
LYNN LAKE      MOCLDY    16  10  79 SW9       29.46F WCI   4
CHURCHILL      FLURRIES   3  -2  78 S15       29.52F WCI -15
GILLAM         MOCLDY    14   3  62 SW15G21   29.67F WCI  -1
$$
                ***SASKATCHEWAN***

CITY           SKY/WX    TMP DP  RH WIND       PRES   REMARKS
ESTEVAN        CLEAR      7  -2  66 S18       29.84F WCI -12
KINDERSLEY     CLOUDY     7   3  85 SW10      29.57F WCI  -8
LLOYDMINSTER   MOCLDY    16  12  86 SW14      29.48F WCI   1
PRINCE ALBERT  MOCLDY     9   1  72 SW5       29.58F WCI   0
REGINA         CLEAR      3  -4  72 S15       29.72F WCI -15
YORKTON        PTCLDY     5  -2  72 S16G24    29.74F WC



USA.gov is the U.S. government's official web portal to all federal, state and local government web resources and services.